Location: Aurora Center
(43.5271°N, 98.5894°W)
Time: 07:41:46
(UTC-05:00)

Courier 1B - Pass Details

Date: 19 July 2024
Orbit: 962 x 1208 km, 28.3° (Epoch: 19 July)

Event Time Altitude Azimuth Distance (km) Brightness Sun altitude
Rises 15:50:21 0° 236° (SW) 4,057 11.3 54.6°
Reaches altitude 10° 15:53:52 10° 223° (SW) 3,064 10.9 54.1°
Maximum altitude 15:59:31 23° 174° (S) 2,188 9.9 53.2°
Drops below altitude 10° 16:04:56 10° 126° (SE) 2,934 9.9 52.3°
Sets 16:08:13 0° 112° (ESE) 3,846 10.4 51.8°
